Fort Smith, AR

4:05 AM CST on December 09, 2016 (GMT -0600)
Fort Smith Regional

Weather History for KFSM - August, 2014

Change the Weather History Date:

Sunday, August 10, 2014

  Actual Average Record
Temperature  
Mean Temperature 82 °F 83 °F  
Max Temperature 93 °F 94 °F 113 °F (1936)
Min Temperature 71 °F 72 °F 58 °F (1989)
Cooling Degree Days 17 18  
Month to date cooling degree days 156 180  
Year to date cooling degree days 1291 1345  
Since 1 June cooling degree days 1013 1101  
Growing Degree Days 32 (Base 50)    
Moisture  
Dew Point 72 °F    
Average Humidity 75    
Maximum Humidity 93    
Minimum Humidity 56    
Precipitation  
Precipitation 0.19 in 0.09 in 3.92 in (2008)
Month to date precipitation 1.12 0.89  
Year to date precipitation 22.99 27.66  
Sea Level Pressure  
Sea Level Pressure 29.98 in    
Wind  
Wind Speed 5 mph (NE)    
Max Wind Speed 13 mph    
Max Gust Speed 18 mph    
Visibility 9 miles    
Events Rain    
T = Trace of Precipitation, MM = Missing Value Source: NWS Daily Summary

Daily Weather History Graph

Daily Weather History Graph

Search for Another Location

Airport or City:

Trip Planner

Search our weather history database for the weather conditions in past years. The results will help you decide how hot, cold, wet, or windy it might be!

Date:

Astronomy

Aug. 10, 2014 Rise Set
Actual Time 6:33 AM CDT 8:11 PM CDT
Civil Twilight 6:05 AM CDT 8:39 PM CDT
Nautical Twilight 5:32 AM CDT 9:11 PM CDT
Astronomical Twilight 4:58 AM CDT 9:46 PM CDT
Moon 8:02 PM CDT (8/10) 6:24 AM CDT (8/10)
Length of Visible Light 14h 33m
Length of Day
13h 38m
Full, 100% of the Moon is Illuminated
Aug 10
Full
Aug 10
Full
Aug 17
Last Quarter
Aug 25
New
Sep 2
First Quarter

Hourly Weather History & Observations

Time (CDT) Temp. Heat Index Dew Point Humidity Pressure Visibility Wind Dir Wind Speed Gust Speed Precip Events Conditions
12:53 AM 73.0 °F - 71.1 °F 93% 29.96 in 10.0 mi NE 5.8 mph - N/A   Clear
1:44 AM 73.0 °F - 71.1 °F 93% 29.99 in 10.0 mi Calm Calm - N/A   Scattered Clouds
1:53 AM 73.0 °F - 71.1 °F 93% 29.98 in 10.0 mi SE 3.5 mph - N/A   Mostly Cloudy
2:09 AM 72.0 °F - 70.0 °F 93% 29.99 in 10.0 mi East 5.8 mph - N/A   Scattered Clouds
2:53 AM 72.0 °F - 70.0 °F 93% 29.97 in 10.0 mi East 4.6 mph - N/A   Clear
3:43 AM 72.0 °F - 70.0 °F 93% 30.00 in 10.0 mi ENE 5.8 mph - N/A   Partly Cloudy
3:53 AM 71.6 °F - 69.8 °F 94% 29.99 in 10.0 mi ENE 4.6 mph - N/A   Mostly Cloudy
4:53 AM 72.0 °F - 70.0 °F 93% 29.98 in 8.0 mi ENE 5.8 mph - N/A   Overcast
5:53 AM 72.0 °F - 70.0 °F 93% 29.99 in 9.0 mi ENE 5.8 mph - N/A   Overcast
6:41 AM 71.1 °F - 70.0 °F 96% 30.01 in 2.5 mi ENE 5.8 mph - N/A   Overcast
6:53 AM 71.1 °F - 70.0 °F 96% 29.99 in 2.0 mi ENE 5.8 mph - N/A   Overcast
7:02 AM 71.1 °F - 70.0 °F 96% 30.01 in 4.0 mi NE 6.9 mph - N/A   Overcast
7:53 AM 72.0 °F - 69.1 °F 91% 30.02 in 10.0 mi North 6.9 mph - N/A   Overcast
8:10 AM 72.0 °F - 69.1 °F 91% 30.05 in 1.8 mi NNW 4.6 mph - 0.02 in Rain Rain
8:20 AM 73.0 °F - 69.1 °F 87% 30.06 in 3.0 mi Variable 4.6 mph - 0.12 in Rain Rain
8:53 AM 71.6 °F - 69.8 °F 94% 30.02 in 3.0 mi South 6.9 mph - N/A Rain Rain
9:53 AM 73.0 °F - 71.1 °F 93% 30.01 in 10.0 mi East 4.6 mph - 0.02 in   Partly Cloudy
10:11 AM 73.0 °F - 71.1 °F 93% 30.02 in 10.0 mi ESE 4.6 mph - N/A   Mostly Cloudy
10:23 AM 73.9 °F - 71.1 °F 91% 30.02 in 10.0 mi East 3.5 mph - N/A   Mostly Cloudy
10:32 AM 75.0 °F - 72.0 °F 90% 30.03 in 10.0 mi ENE 3.5 mph - N/A   Scattered Clouds
10:53 AM 77.0 °F - 72.0 °F 84% 30.02 in 10.0 mi Variable 3.5 mph - N/A   Clear
11:01 AM 77.0 °F - 72.0 °F 84% 30.03 in 10.0 mi Calm Calm - N/A   Partly Cloudy
11:53 AM 82.0 °F 87.4 °F 73.0 °F 74% 30.01 in 10.0 mi Calm Calm - N/A   Clear
12:53 PM 88.0 °F 97.5 °F 75.0 °F 65% 30.00 in 10.0 mi Variable 4.6 mph - N/A   Clear
1:53 PM 90.0 °F 97.9 °F 73.0 °F 57% 29.99 in 10.0 mi WSW 6.9 mph - N/A   Clear
2:53 PM 89.6 °F 98.2 °F 73.4 °F 59% 29.99 in 10.0 mi WSW 10.4 mph - N/A   Clear
3:53 PM 91.0 °F 100.4 °F 73.9 °F 57% 29.94 in 10.0 mi WNW 11.5 mph - N/A   Partly Cloudy
4:53 PM 91.9 °F 101.3 °F 73.9 °F 55% 29.91 in 10.0 mi West 10.4 mph - N/A   Clear
5:53 PM 91.9 °F 101.3 °F 73.9 °F 55% 29.91 in 10.0 mi WNW 9.2 mph - N/A   Partly Cloudy
6:53 PM 91.4 °F 100.1 °F 73.4 °F 55% 29.92 in 10.0 mi WNW 5.8 mph - N/A   Clear
7:53 PM 88.0 °F 95.6 °F 73.0 °F 61% 29.91 in 10.0 mi NNW 3.5 mph - N/A   Clear
8:53 PM 87.1 °F 95.4 °F 73.9 °F 65% 29.93 in 10.0 mi NW 3.5 mph - N/A   Clear
9:53 PM 84.0 °F 92.6 °F 75.9 °F 76% 29.96 in 10.0 mi Calm Calm - N/A   Scattered Clouds
10:53 PM 80.6 °F 86.2 °F 75.2 °F 84% 29.98 in 10.0 mi WSW 4.6 mph - N/A   Clear
11:53 PM 80.1 °F 83.8 °F 72.0 °F 76% 29.96 in 10.0 mi WSW 3.5 mph - N/A   Clear